Regional Weather Roundup
Issued by NWS

Home | Current Version | Previous Version | Graphics & Text | Print | Product List | Glossary On
Versions: 1 2 3 4 5 6 7 8 9 10 11 12 13 14 15 16 17 18 19 20 21 22 23 24 25 26 27 28 29 30 31 32 33 34 35 36 37 38 39 40 41 42 43 44 45 46 47 48 49 50
000
ASUS43 KDTX 300101
RWRMI
MICHIGAN HOURLY REGIONAL WEATHER ROUNDUP
NATIONAL WEATHER SERVICE DETROIT/PONTIAC MI
900 PM EDT FRI APR 29 2016

NOTE: "FAIR" INDICATES FEW OR NO CLOUDS BELOW 12,000 FEET WITH NO
SIGNIFICANT WEATHER AND/OR OBSTRUCTION TO VISIBILITY.

MIZ047>049-052>055-059>063-066>070-074>076-081>083-300200-
SOUTHEAST LOWER MICHIGAN

CITY           SKY/WX    TMP DP  RH WIND       PRES   REMARKS
ADRIAN         CLOUDY    49  40  71 E12       30.15R
ALMA           CLEAR     47  38  72 SE5       30.17R
ANN ARBOR      CLOUDY    49  38  65 CALM      30.14R
BAD AXE        MOCLDY    43  28  54 E3        30.17R
CARO           CLEAR     46  31  58 CALM      30.16R
DETROIT CITY   CLOUDY    49  32  52 NE5       30.15R
DETROIT        CLOUDY    50  34  54 E3        30.15R
FLINT          CLOUDY    50  35  56 SE3       30.16R
GROSSE ILE     CLOUDY    48  41  76 CALM      30.14R
HILLSDALE      CLOUDY    49  41  71 E7        30.12R
HOWELL         CLOUDY    49  37  65 CALM      30.15R

CITY           SKY/WX    TMP DP  RH WIND       PRES   REMARKS
JACKSON        CLOUDY    50  38  63 NE6       30.14R
LAMBERTVILLE   CLOUDY    49  39  69 E5        30.15R
LANSING        CLOUDY    49  38  65 NE5       30.16R
LAPEER         CLOUDY    48  32  53 CALM      30.16S
MASON          CLOUDY    48  40  73 N3        30.15R
MONROE         CLOUDY    47  40  75 S6        30.15R
PONTIAC        CLOUDY    49  31  49 NE7       30.14R
PORT HOPE        N/A     42  31  64 CALM      30.15F
PORT HURON     CLOUDY    45  30  57 N7        30.17S
TRI CITIES     MOCLDY    49  35  58 SE5       30.17R
MIDLAND        FAIR      46  34  64 NE3       30.17R
TROY           CLOUDY    51  31  46 NE6       30.17R
SAGINAW HB     PTCLDY    45  36  70 NW5       30.16S
$$
MIZ043>046-050>051-056>058-064>065-071>073-077>080-300200-
SOUTHWEST LOWER MICHIGAN

CITY           SKY/WX    TMP DP  RH WIND       PRES   REMARKS
BATTLE CREEK   CLOUDY    49  39  68 NE9       30.14R
BENTON HARBOR  CLOUDY    46  40  79 CALM      30.13R
BIG RAPIDS     CLEAR     49  33  54 SE5       30.14S
COLDWATER      CLOUDY    51  42  71 NE9       30.12R
FREMONT        FAIR      48  37  64 SW6       30.14R
HOLLAND        CLOUDY    50  40  68 E7        30.15S
GRAND RAPIDS   MOCLDY    49  40  71 E8        30.16R
IONIA          CLOUDY    46  38  74 NE3       30.15R
KALAMAZOO      CLOUDY    50  39  66 NE5       30.14R
LUDINGTON      CLEAR     43  35  72 CALM      30.15S
MARSHALL       CLOUDY    49  39  69 NE3       30.13R
MOUNT PLEASANT CLOUDY    49  36  61 SE6       30.16R
MUSKEGON       PTCLDY    46  35  65 NW8       30.16R
$$
MIZ016>042-300200-
NORTHERN LOWER MICHIGAN

CITY           SKY/WX    TMP DP  RH WIND       PRES   REMARKS
ALPENA         CLEAR     42  28  57 CALM      30.19R
BEAVER ISLAND  CLEAR     44  32  61 CALM      30.17R
BELLAIRE       CLEAR     55  28  36 NE6       30.15R
CADILLAC       CLEAR     48  33  55 E8        30.13R
CHARLEVOIX     CLEAR     51  30  45 NE5       30.19R
FRANKFORT      CLEAR     50  33  50 NE7       30.14R
GAYLORD        CLEAR     51  29  42 NE7       30.15R
HARBOR SPRINGS CLEAR     51  30  45 CALM      30.16S
HOUGHTON LAKE  CLEAR     49  33  54 S7        30.14R
MANISTEE       CLEAR     43  32  65 W7        30.15R
OSCODA         CLEAR     44  26  49 E3        30.17R
PELLSTON       CLEAR     49  29  46 SE3       30.17R
ROGERS CITY    CLEAR     39  32  76 CALM      30.19R
TRAVERSE CITY  PTCLDY    52  31  44 CALM      30.13R
$$
MIZ007>008-015-300200-
EASTERN UPPER MICHIGAN

CITY           SKY/WX    TMP DP  RH WIND       PRES   REMARKS
KINROSS          N/A     45  30  57 NW3       30.18R
MACKINAC ISLAN CLEAR     46  28  47 E5        30.17R
NEWBERRY       CLEAR     46  32  58 N3        30.18R
S. S. MARIE    CLEAR     44  31  60 SW7       30.17R
MUNISING         N/A     39  35  86 NE6       30.19R WCI  35
$$
MIZ004>006-011>014-085-300200-
CENTRAL UPPER MICHIGAN

CITY           SKY/WX    TMP DP  RH WIND       PRES   REMARKS
MANISTIQUE     CLEAR     47  29  49 CALM      30.17R
ESCANABA       PTCLDY    48  25  40 CALM      30.17R
MENOMINEE      CLOUDY    52  27  37 CALM      30.16R
SAWYER-GWINN   CLEAR     41  30  65 N9        30.16R
$$
MIZ001>003-009>011-084-300200-
WESTERN UPPER MICHIGAN

CITY           SKY/WX    TMP DP  RH WIND       PRES   REMARKS
IRON MOUNTAIN  PTCLDY    52  27  38 SE6       30.13R
HOUGHTON       CLEAR     45  29  53 CALM      30.19R
COPPER HARBOR    N/A     40  35  83 CALM      30.21S
IRONWOOD         N/A     41  32  70 N5        30.17R
$$

ABBREVIATIONS USED IN REMARKS
   TC - TEMPERATURE IN CELSIUS
  WCI - WIND CHILL INDEX
   HX - HEAT INDEX
  VSB - VISIBILITY




USA.gov is the U.S. government's official web portal to all federal, state and local government web resources and services.